Time,TemperatureF,DewpointF,PressureIn,WindDirection,WindDirectionDegrees,WindSpeedMPH,WindSpeedGustMPH,Humidity,HourlyPrecipIn,Conditions,Clouds,dailyrainin,SoftwareType,DateUTC
2013-01-12 00:01:00,30.7,30.7,29.74,ESE,116,0.0,26.4,100,0.00,,,0.00,VWS V13.01,2013-01-12 05:01:00,
2013-01-12 00:02:00,30.7,30.7,29.74,ESE,116,0.0,26.4,100,0.00,,,0.00,VWS V13.01,2013-01-12 05:02:00,
2013-01-12 00:03:00,30.7,30.7,29.74,ESE,116,0.0,26.4,100,0.00,,,0.00,VWS V13.01,2013-01-12 05:03:00,
2013-01-12 00:05:00,30.7,30.7,29.74,ESE,116,0.0,26.4,100,0.00,,,0.00,VWS V13.01,2013-01-12 05:05:00,
2013-01-12 00:10:00,30.7,30.7,29.74,ESE,113,4.0,26.4,100,0.00,,,0.00,VWS V13.01,2013-01-12 05:10:00,
2013-01-12 00:15:00,30.7,30.7,29.74,ESE,114,3.4,26.4,100,0.00,,,0.00,VWS V13.01,2013-01-12 05:15:00,
2013-01-12 00:20:00,30.7,30.7,29.74,ESE,107,3.4,26.4,100,0.00,,,0.00,VWS V13.01,2013-01-12 05:20:00,
2013-01-12 00:25:00,30.7,30.7,29.74,ESE,107,4.0,26.4,100,0.00,,,0.00,VWS V13.01,2013-01-12 05:25:00,
2013-01-12 00:30:00,30.7,30.7,29.74,ESE,107,0.0,26.4,100,0.00,,,0.00,VWS V13.01,2013-01-12 05:30:00,
2013-01-12 00:35:00,30.9,30.9,29.74,ESE,102,0.0,26.4,100,0.00,,,0.00,VWS V13.01,2013-01-12 05:35:00,
2013-01-12 00:40:00,30.9,30.9,29.74,ESE,103,0.0,26.4,100,0.00,,,0.00,VWS V13.01,2013-01-12 05:40:00,
2013-01-12 00:45:00,31.1,31.1,29.74,ESE,109,0.0,26.4,100,0.00,,,0.00,VWS V13.01,2013-01-12 05:45:00,
2013-01-12 00:50:00,31.1,31.1,29.74,ESE,109,0.0,26.4,100,0.00,,,0.00,VWS V13.01,2013-01-12 05:50:00,
2013-01-12 00:55:00,31.1,31.1,29.74,ESE,109,0.0,26.4,100,0.00,,,0.00,VWS V13.01,2013-01-12 05:55:00,
2013-01-12 01:00:00,31.3,31.3,29.74,ESE,113,0.0,26.4,100,0.00,,,0.00,VWS V13.01,2013-01-12 06:00:00,
2013-01-12 01:05:00,31.3,31.3,29.74,ESE,113,0.0,26.4,100,0.00,,,0.00,VWS V13.01,2013-01-12 06:05:00,
2013-01-12 01:10:00,31.3,31.3,29.74,ESE,113,0.0,26.4,100,0.00,,,0.00,VWS V13.01,2013-01-12 06:10:00,
2013-01-12 01:15:00,31.5,31.5,29.74,ESE,113,0.0,26.4,100,0.00,,,0.00,VWS V13.01,2013-01-12 06:15:00,
2013-01-12 01:20:00,31.5,31.5,29.74,ESE,113,0.0,26.4,100,0.00,,,0.00,VWS V13.01,2013-01-12 06:20:00,
2013-01-12 01:25:00,31.6,31.6,29.71,ESE,113,0.0,26.4,100,0.00,,,0.00,VWS V13.01,2013-01-12 06:25:00,
2013-01-12 01:30:00,31.6,31.6,29.71,ESE,113,0.0,26.4,100,0.00,,,0.00,VWS V13.01,2013-01-12 06:30:00,
2013-01-12 01:35:00,31.6,31.6,29.71,ESE,113,0.0,26.4,100,0.00,,,0.00,VWS V13.01,2013-01-12 06:35:00,
2013-01-12 01:41:00,31.8,31.8,29.74,ESE,113,0.0,26.4,100,0.00,,,0.00,VWS V13.01,2013-01-12 06:41:00,
2013-01-12 01:46:00,31.8,31.8,29.74,ESE,113,0.0,26.4,100,0.00,,,0.00,VWS V13.01,2013-01-12 06:46:00,
2013-01-12 01:51:00,31.8,31.8,29.74,ESE,113,0.0,26.4,100,0.00,,,0.00,VWS V13.01,2013-01-12 06:51:00,
2013-01-12 01:56:00,31.8,31.8,29.74,ESE,113,0.0,26.4,100,0.00,,,0.00,VWS V13.01,2013-01-12 06:56:00,
2013-01-12 02:01:00,31.8,31.8,29.74,ESE,113,0.0,26.4,100,0.00,,,0.00,VWS V13.01,2013-01-12 07:01:00,
2013-01-12 02:06:00,32.0,32.0,29.74,ESE,113,0.0,26.4,100,0.00,,,0.00,VWS V13.01,2013-01-12 07:06:00,
2013-01-12 02:11:00,32.0,32.0,29.74,ESE,113,0.0,26.4,100,0.00,,,0.00,VWS V13.01,2013-01-12 07:11:00,
2013-01-12 02:16:00,32.0,32.0,29.74,ESE,104,0.0,26.4,100,0.00,,,0.00,VWS V13.01,2013-01-12 07:16:00,
2013-01-12 02:21:00,32.0,32.0,29.74,ESE,104,0.0,26.4,100,0.00,,,0.00,VWS V13.01,2013-01-12 07:21:00,
2013-01-12 02:26:00,32.0,32.0,29.74,ESE,104,0.0,26.4,100,0.00,,,0.00,VWS V13.01,2013-01-12 07:26:00,
2013-01-12 02:31:00,32.0,32.0,29.74,ESE,104,0.0,26.4,100,0.00,,,0.00,VWS V13.01,2013-01-12 07:31:00,
2013-01-12 02:36:00,32.0,32.0,29.74,ESE,104,0.0,26.4,100,0.00,,,0.00,VWS V13.01,2013-01-12 07:36:00,
2013-01-12 02:41:00,32.0,32.0,29.74,ESE,104,0.0,26.4,100,0.00,,,0.00,VWS V13.01,2013-01-12 07:41:00,
2013-01-12 02:46:00,32.0,32.0,29.74,ESE,123,0.0,26.4,100,0.00,,,0.00,VWS V13.01,2013-01-12 07:46:00,
2013-01-12 02:51:00,32.2,32.2,29.74,ESE,123,0.0,26.4,100,0.00,,,0.00,VWS V13.01,2013-01-12 07:51:00,
2013-01-12 02:56:00,32.2,32.2,29.74,ESE,123,0.0,26.4,100,0.00,,,0.00,VWS V13.01,2013-01-12 07:56:00,
2013-01-12 03:01:00,32.2,32.2,29.74,ESE,123,0.0,26.4,100,0.00,,,0.00,VWS V13.01,2013-01-12 08:01:00,
2013-01-12 03:06:00,32.2,32.2,29.74,ESE,123,0.0,26.4,100,0.00,,,0.00,VWS V13.01,2013-01-12 08:06:00,
2013-01-12 03:11:00,32.4,32.4,29.74,ESE,123,0.0,26.4,100,0.00,,,0.00,VWS V13.01,2013-01-12 08:11:00,
2013-01-12 03:16:00,32.5,32.5,29.74,ESE,123,0.0,26.4,100,0.00,,,0.00,VWS V13.01,2013-01-12 08:16:00,
2013-01-12 03:21:00,32.5,32.5,29.74,ESE,123,0.0,26.4,100,0.00,,,0.00,VWS V13.01,2013-01-12 08:21:00,
2013-01-12 03:26:00,32.5,32.5,29.74,SE,129,0.0,26.4,100,0.00,,,0.00,VWS V13.01,2013-01-12 08:26:00,
2013-01-12 03:31:00,32.5,32.5,29.74,SE,129,0.0,26.4,100,0.00,,,0.00,VWS V13.01,2013-01-12 08:31:00,
2013-01-12 03:36:00,32.7,32.7,29.74,SE,129,0.0,26.4,100,0.00,,,0.00,VWS V13.01,2013-01-12 08:36:00,
2013-01-12 03:42:00,32.7,32.7,29.74,SE,129,0.0,26.4,100,0.00,,,0.00,VWS V13.01,2013-01-12 08:42:00,
2013-01-12 03:47:00,32.7,32.7,29.74,SE,129,0.0,26.4,100,0.00,,,0.00,VWS V13.01,2013-01-12 08:47:00,
2013-01-12 03:52:00,32.7,32.7,29.74,ESE,120,0.0,26.4,100,0.00,,,0.00,VWS V13.01,2013-01-12 08:52:00,
2013-01-12 03:57:00,32.7,32.7,29.74,ESE,120,0.0,26.4,100,0.00,,,0.00,VWS V13.01,2013-01-12 08:57:00,
2013-01-12 04:02:00,32.7,32.7,29.74,ESE,120,0.0,26.4,100,0.00,,,0.00,VWS V13.01,2013-01-12 09:02:00,
2013-01-12 04:07:00,32.7,32.7,29.74,ESE,120,0.0,26.4,100,0.00,,,0.00,VWS V13.01,2013-01-12 09:07:00,
2013-01-12 04:12:00,32.7,32.7,29.71,ESE,120,0.0,26.4,100,0.00,,,0.00,VWS V13.01,2013-01-12 09:12:00,
2013-01-12 04:17:00,32.9,32.9,29.71,ESE,121,0.0,26.4,100,0.00,,,0.00,VWS V13.01,2013-01-12 09:17:00,
2013-01-12 04:22:00,32.9,32.9,29.71,ESE,121,0.0,26.4,100,0.00,,,0.00,VWS V13.01,2013-01-12 09:22:00,
2013-01-12 04:27:00,32.9,32.9,29.71,ESE,121,0.0,26.4,100,0.00,,,0.00,VWS V13.01,2013-01-12 09:27:00,
2013-01-12 04:32:00,32.9,32.9,29.71,ESE,121,0.0,26.4,100,0.00,,,0.00,VWS V13.01,2013-01-12 09:32:00,
2013-01-12 04:37:00,32.9,32.9,29.71,ESE,121,0.0,26.4,100,0.00,,,0.00,VWS V13.01,2013-01-12 09:37:00,
2013-01-12 04:42:00,33.1,33.1,29.74,ESE,121,0.0,26.4,100,0.00,,,0.00,VWS V13.01,2013-01-12 09:42:00,
2013-01-12 04:47:00,33.1,33.1,29.74,ESE,116,0.0,26.4,100,0.00,,,0.00,VWS V13.01,2013-01-12 09:47:00,
2013-01-12 04:52:00,33.1,33.1,29.74,ESE,116,0.0,26.4,100,0.00,,,0.00,VWS V13.01,2013-01-12 09:52:00,
2013-01-12 04:57:00,33.1,33.1,29.74,ESE,116,0.0,26.4,100,0.00,,,0.00,VWS V13.01,2013-01-12 09:57:00,
2013-01-12 05:02:00,33.1,33.1,29.74,ESE,116,0.0,26.4,100,0.00,,,0.00,VWS V13.01,2013-01-12 10:02:00,
2013-01-12 05:07:00,33.1,33.1,29.74,ESE,116,0.0,26.4,100,0.00,,,0.00,VWS V13.01,2013-01-12 10:07:00,
2013-01-12 05:12:00,33.3,33.3,29.74,ESE,116,0.0,26.4,100,0.00,,,0.00,VWS V13.01,2013-01-12 10:12:00,
2013-01-12 05:17:00,33.3,33.3,29.74,ESE,113,0.0,26.4,100,0.00,,,0.00,VWS V13.01,2013-01-12 10:17:00,
2013-01-12 05:22:00,33.1,33.1,29.74,ESE,113,0.0,26.4,100,0.00,,,0.00,VWS V13.01,2013-01-12 10:22:00,
2013-01-12 05:27:00,33.3,33.3,29.74,ESE,113,0.0,26.4,100,0.00,,,0.00,VWS V13.01,2013-01-12 10:27:00,
2013-01-12 05:32:00,33.3,33.3,29.74,ESE,113,0.0,26.4,100,0.00,,,0.00,VWS V13.01,2013-01-12 10:32:00,
2013-01-12 05:37:00,33.3,33.3,29.74,ESE,113,0.0,26.4,100,0.00,,,0.00,VWS V13.01,2013-01-12 10:37:00,
2013-01-12 05:42:00,33.3,33.3,29.74,ESE,113,0.0,26.4,100,0.00,,,0.00,VWS V13.01,2013-01-12 10:42:00,
2013-01-12 05:47:00,33.3,33.3,29.74,ESE,113,0.0,26.4,100,0.00,,,0.00,VWS V13.01,2013-01-12 10:47:00,
2013-01-12 05:52:00,33.3,33.3,29.74,ESE,113,0.0,26.4,100,0.00,,,0.00,VWS V13.01,2013-01-12 10:52:00,
2013-01-12 05:57:00,33.3,33.3,29.74,ESE,113,0.0,26.4,100,0.00,,,0.00,VWS V13.01,2013-01-12 10:57:00,
2013-01-12 06:02:00,33.3,33.3,29.74,ESE,113,0.0,26.4,100,0.00,,,0.00,VWS V13.01,2013-01-12 11:02:00,
2013-01-12 06:07:00,33.3,33.3,29.74,ESE,113,0.0,26.4,100,0.00,,,0.00,VWS V13.01,2013-01-12 11:07:00,
2013-01-12 06:12:00,33.4,33.4,29.74,ESE,113,0.0,26.4,100,0.00,,,0.00,VWS V13.01,2013-01-12 11:12:00,
2013-01-12 06:17:00,33.3,33.3,29.74,ESE,113,0.0,26.4,100,0.00,,,0.00,VWS V13.01,2013-01-12 11:17:00,
2013-01-12 06:23:00,33.4,33.4,29.74,ESE,113,0.0,26.4,100,0.00,,,0.00,VWS V13.01,2013-01-12 11:23:00,
2013-01-12 06:28:00,33.4,33.4,29.77,ESE,113,0.0,26.4,100,0.00,,,0.00,VWS V13.01,2013-01-12 11:28:00,
2013-01-12 06:33:00,33.4,33.4,29.77,ESE,113,0.0,26.4,100,0.00,,,0.00,VWS V13.01,2013-01-12 11:33:00,
2013-01-12 06:38:00,33.4,33.4,29.77,ESE,113,0.0,26.4,100,0.00,,,0.00,VWS V13.01,2013-01-12 11:38:00,
2013-01-12 06:43:00,33.4,33.4,29.74,ESE,113,0.0,26.4,100,0.00,,,0.00,VWS V13.01,2013-01-12 11:43:00,
2013-01-12 06:48:00,33.4,33.4,29.74,ESE,113,0.0,26.4,100,0.00,,,0.00,VWS V13.01,2013-01-12 11:48:00,
2013-01-12 06:53:00,33.4,33.4,29.74,ESE,113,0.0,26.4,100,0.00,,,0.00,VWS V13.01,2013-01-12 11:53:00,
2013-01-12 06:58:00,33.4,33.4,29.74,ESE,113,0.0,26.4,100,0.00,,,0.00,VWS V13.01,2013-01-12 11:58:00,
2013-01-12 07:03:00,33.4,33.4,29.74,ESE,113,0.0,26.4,100,0.00,,,0.00,VWS V13.01,2013-01-12 12:03:00,
2013-01-12 07:08:00,33.4,33.4,29.74,ESE,113,0.0,26.4,100,0.00,,,0.00,VWS V13.01,2013-01-12 12:08:00,
2013-01-12 07:13:00,33.4,33.4,29.74,ESE,113,0.0,26.4,100,0.00,,,0.00,VWS V13.01,2013-01-12 12:13:00,
2013-01-12 07:18:00,33.4,33.4,29.74,ESE,113,0.0,26.4,100,0.00,,,0.00,VWS V13.01,2013-01-12 12:18:00,
2013-01-12 07:23:00,33.4,33.4,29.74,ESE,113,0.0,26.4,100,0.00,,,0.00,VWS V13.01,2013-01-12 12:23:00,
2013-01-12 07:28:00,33.4,33.4,29.74,ESE,113,0.0,26.4,100,0.00,,,0.00,VWS V13.01,2013-01-12 12:28:00,
2013-01-12 07:33:00,33.6,33.6,29.74,ESE,113,0.0,26.4,100,0.00,,,0.00,VWS V13.01,2013-01-12 12:33:00,
2013-01-12 07:38:00,33.6,33.6,29.74,ESE,113,0.0,26.4,100,0.00,,,0.00,VWS V13.01,2013-01-12 12:38:00,
2013-01-12 07:43:00,33.6,33.6,29.74,ESE,113,0.0,26.4,100,0.00,,,0.00,VWS V13.01,2013-01-12 12:43:00,
2013-01-12 07:48:00,33.6,33.6,29.74,ESE,113,0.0,26.4,100,0.00,,,0.00,VWS V13.01,2013-01-12 12:48:00,
2013-01-12 07:53:00,33.6,33.6,29.74,ESE,113,0.0,26.4,100,0.00,,,0.00,VWS V13.01,2013-01-12 12:53:00,
2013-01-12 07:58:00,33.6,33.6,29.74,ESE,113,0.0,26.4,100,0.00,,,0.00,VWS V13.01,2013-01-12 12:58:00,
2013-01-12 08:03:00,33.6,33.6,29.74,ESE,113,0.0,26.4,100,0.00,,,0.00,VWS V13.01,2013-01-12 13:03:00,
2013-01-12 08:08:00,33.6,33.6,29.74,ESE,113,0.0,26.4,100,0.00,,,0.00,VWS V13.01,2013-01-12 13:08:00,
2013-01-12 08:13:00,33.6,33.6,29.74,ESE,113,0.0,26.4,100,0.00,,,0.00,VWS V13.01,2013-01-12 13:13:00,
2013-01-12 08:18:00,33.8,33.8,29.74,ESE,113,0.0,26.4,100,0.00,,,0.00,VWS V13.01,2013-01-12 13:18:00,
2013-01-12 08:23:00,33.8,33.8,29.77,ESE,113,0.0,26.4,100,0.00,,,0.00,VWS V13.01,2013-01-12 13:23:00,
2013-01-12 08:28:00,33.8,33.8,29.77,ESE,113,0.0,26.4,100,0.00,,,0.00,VWS V13.01,2013-01-12 13:28:00,
2013-01-12 08:33:00,33.8,33.8,29.77,ESE,113,0.0,26.4,100,0.00,,,0.00,VWS V13.01,2013-01-12 13:33:00,
2013-01-12 08:38:00,33.8,33.8,29.77,ESE,113,0.0,26.4,100,0.00,,,0.00,VWS V13.01,2013-01-12 13:38:00,
2013-01-12 08:43:00,33.8,33.8,29.77,ESE,113,0.0,26.4,100,0.00,,,0.00,VWS V13.01,2013-01-12 13:43:00,
2013-01-12 08:48:00,33.8,33.8,29.77,ESE,113,0.0,26.4,100,0.00,,,0.00,VWS V13.01,2013-01-12 13:48:00,
2013-01-12 08:53:00,33.8,33.8,29.77,ESE,113,0.0,26.4,100,0.00,,,0.00,VWS V13.01,2013-01-12 13:53:00,
2013-01-12 08:58:00,34.0,34.0,29.77,ESE,113,0.0,26.4,100,0.00,,,0.00,VWS V13.01,2013-01-12 13:58:00,
2013-01-12 09:04:00,34.0,34.0,29.77,ESE,113,0.0,26.4,100,0.00,,,0.00,VWS V13.01,2013-01-12 14:04:00,
2013-01-12 09:09:00,34.0,34.0,29.77,ESE,113,0.0,26.4,100,0.00,,,0.00,VWS V13.01,2013-01-12 14:09:00,
2013-01-12 09:14:00,34.2,34.2,29.77,ESE,113,0.0,26.4,100,0.00,,,0.00,VWS V13.01,2013-01-12 14:14:00,
2013-01-12 09:19:00,34.2,34.2,29.77,ESE,113,0.0,26.4,100,0.00,,,0.00,VWS V13.01,2013-01-12 14:19:00,
2013-01-12 09:24:00,34.3,34.3,29.77,ESE,113,0.0,26.4,100,0.00,,,0.00,VWS V13.01,2013-01-12 14:24:00,
2013-01-12 09:29:00,34.3,34.3,29.77,ESE,113,0.0,26.4,100,0.00,,,0.00,VWS V13.01,2013-01-12 14:29:00,
2013-01-12 09:34:00,34.5,34.5,29.77,ESE,113,0.0,26.4,100,0.00,,,0.00,VWS V13.01,2013-01-12 14:34:00,
2013-01-12 09:39:00,34.5,34.5,29.77,ESE,113,0.0,26.4,100,0.00,,,0.00,VWS V13.01,2013-01-12 14:39:00,
2013-01-12 09:44:00,34.7,34.7,29.77,ESE,113,0.0,26.4,100,0.00,,,0.00,VWS V13.01,2013-01-12 14:44:00,
2013-01-12 09:49:00,34.9,34.9,29.77,ESE,113,0.0,26.4,100,0.00,,,0.00,VWS V13.01,2013-01-12 14:49:00,
2013-01-12 09:54:00,34.9,34.9,29.74,ESE,113,0.0,26.4,100,0.00,,,0.00,VWS V13.01,2013-01-12 14:54:00,
2013-01-12 09:59:00,35.1,35.1,29.74,ESE,113,0.0,26.4,100,0.00,,,0.00,VWS V13.01,2013-01-12 14:59:00,
2013-01-12 10:04:00,35.4,35.4,29.74,ESE,113,0.0,26.4,100,0.00,,,0.00,VWS V13.01,2013-01-12 15:04:00,
2013-01-12 10:09:00,35.2,35.2,29.74,ESE,113,0.0,26.4,100,0.00,,,0.00,VWS V13.01,2013-01-12 15:09:00,
2013-01-12 10:14:00,35.2,35.2,29.74,ESE,113,0.0,26.4,100,0.00,,,0.00,VWS V13.01,2013-01-12 15:14:00,
2013-01-12 10:19:00,35.4,35.4,29.74,ESE,113,0.0,26.4,100,0.00,,,0.00,VWS V13.01,2013-01-12 15:19:00,
2013-01-12 10:24:00,35.2,35.2,29.74,ESE,113,0.0,26.4,100,0.00,,,0.00,VWS V13.01,2013-01-12 15:24:00,
2013-01-12 10:29:00,35.4,35.4,29.74,ESE,113,0.0,26.4,100,0.00,,,0.00,VWS V13.01,2013-01-12 15:29:00,
2013-01-12 10:34:00,35.4,35.4,29.74,ESE,113,0.0,26.4,100,0.00,,,0.00,VWS V13.01,2013-01-12 15:34:00,
2013-01-12 10:39:00,35.6,35.6,29.74,ESE,113,0.0,26.4,100,0.00,,,0.00,VWS V13.01,2013-01-12 15:39:00,
2013-01-12 10:45:00,36.0,36.0,29.74,ESE,113,0.0,0.0,100,0.00,,,0.00,VWS V13.01,2013-01-12 15:45:00,
2013-01-12 10:50:00,36.0,36.0,29.74,ESE,113,0.0,0.0,100,0.00,,,0.00,VWS V13.01,2013-01-12 15:50:00,
2013-01-12 10:55:00,35.6,35.6,29.74,ESE,113,0.0,0.0,100,0.00,,,0.00,VWS V13.01,2013-01-12 15:55:00,
2013-01-12 11:00:00,35.6,35.6,29.74,ESE,113,0.0,0.0,100,0.00,,,0.00,VWS V13.01,2013-01-12 16:00:00,
2013-01-12 11:05:00,36.1,36.1,29.74,ESE,113,0.0,0.0,100,0.00,,,0.00,VWS V13.01,2013-01-12 16:05:00,
2013-01-12 11:10:00,36.5,36.5,29.74,ESE,113,0.0,0.0,100,0.00,,,0.00,VWS V13.01,2013-01-12 16:10:00,
2013-01-12 11:16:00,36.3,36.3,29.74,ESE,113,0.0,0.0,100,0.00,,,0.00,VWS V13.01,2013-01-12 16:16:00,
2013-01-12 11:21:00,36.5,36.5,29.74,ESE,113,0.0,0.0,100,0.00,,,0.00,VWS V13.01,2013-01-12 16:21:00,
2013-01-12 11:26:00,36.7,36.7,29.71,ESE,113,0.0,0.0,100,0.00,,,0.00,VWS V13.01,2013-01-12 16:26:00,
2013-01-12 11:31:00,36.7,36.7,29.71,ESE,113,0.0,0.0,100,0.00,,,0.00,VWS V13.01,2013-01-12 16:31:00,
2013-01-12 11:36:00,36.9,36.9,29.71,ESE,113,0.0,0.0,100,0.00,,,0.00,VWS V13.01,2013-01-12 16:36:00,
2013-01-12 11:41:00,37.4,37.4,29.71,ESE,113,0.0,0.0,100,0.00,,,0.00,VWS V13.01,2013-01-12 16:41:00,
2013-01-12 11:46:00,37.6,37.6,29.71,ESE,113,0.0,0.0,100,0.00,,,0.00,VWS V13.01,2013-01-12 16:46:00,
2013-01-12 11:51:00,37.9,37.9,29.71,ESE,113,0.0,0.0,100,0.00,,,0.00,VWS V13.01,2013-01-12 16:51:00,
2013-01-12 11:56:00,38.5,38.5,29.71,ESE,113,0.0,0.0,100,0.00,,,0.00,VWS V13.01,2013-01-12 16:56:00,
2013-01-12 12:01:00,38.7,38.7,29.71,ESE,113,0.0,0.0,100,0.00,,,0.00,VWS V13.01,2013-01-12 17:01:00,
2013-01-12 12:06:00,38.7,38.7,29.71,ESE,113,0.0,0.0,100,0.00,,,0.00,VWS V13.01,2013-01-12 17:06:00,
2013-01-12 12:11:00,38.5,38.5,29.68,ESE,113,0.0,0.0,100,0.00,,,0.00,VWS V13.01,2013-01-12 17:11:00,
2013-01-12 12:16:00,37.6,37.6,29.68,ESE,113,0.0,0.0,100,0.00,,,0.00,VWS V13.01,2013-01-12 17:16:00,
2013-01-12 12:21:00,37.9,37.9,29.68,ESE,113,0.0,0.0,100,0.00,,,0.00,VWS V13.01,2013-01-12 17:21:00,
2013-01-12 12:26:00,38.1,38.1,29.68,ESE,113,0.0,0.0,100,0.00,,,0.00,VWS V13.01,2013-01-12 17:26:00,
2013-01-12 12:31:00,38.5,38.5,29.68,ESE,113,0.0,0.0,100,0.00,,,0.00,VWS V13.01,2013-01-12 17:31:00,
2013-01-12 12:36:00,38.3,38.3,29.68,ESE,108,0.0,0.0,100,0.00,,,0.00,VWS V13.01,2013-01-12 17:36:00,
2013-01-12 12:41:00,37.9,37.9,29.71,NE,46,0.0,0.0,100,0.00,,,0.00,VWS V13.01,2013-01-12 17:41:00,
2013-01-12 12:46:00,38.1,38.1,29.71,NE,45,0.0,0.0,100,0.00,,,0.00,VWS V13.01,2013-01-12 17:46:00,
2013-01-12 12:51:00,37.8,37.8,29.71,NE,46,0.0,0.0,100,0.00,,,0.00,VWS V13.01,2013-01-12 17:51:00,
2013-01-12 12:56:00,37.4,37.4,29.71,NE,51,0.0,0.0,100,0.00,,,0.00,VWS V13.01,2013-01-12 17:56:00,
2013-01-12 13:01:00,37.0,37.0,29.71,NNE,26,0.0,4.5,100,0.00,,,0.00,VWS V13.01,2013-01-12 18:01:00,
2013-01-12 13:06:00,37.0,37.0,29.71,NNE,26,0.0,4.5,100,0.00,,,0.00,VWS V13.01,2013-01-12 18:06:00,
2013-01-12 13:11:00,37.0,37.0,29.71,NNE,31,0.0,4.5,100,0.00,,,0.00,VWS V13.01,2013-01-12 18:11:00,
2013-01-12 13:16:00,37.0,37.0,29.71,ENE,58,0.0,4.5,100,0.00,,,0.00,VWS V13.01,2013-01-12 18:16:00,
2013-01-12 13:21:00,37.4,37.4,29.71,ENE,58,0.0,4.5,100,0.00,,,0.00,VWS V13.01,2013-01-12 18:21:00,
2013-01-12 13:26:00,37.6,37.6,29.71,ENE,58,0.0,4.5,100,0.00,,,0.00,VWS V13.01,2013-01-12 18:26:00,
2013-01-12 13:31:00,37.6,37.6,29.71,ENE,59,0.0,4.5,100,0.00,,,0.00,VWS V13.01,2013-01-12 18:31:00,
2013-01-12 13:36:00,37.6,37.6,29.71,ESE,106,0.0,4.5,100,0.00,,,0.00,VWS V13.01,2013-01-12 18:36:00,
2013-01-12 13:41:00,37.4,37.4,29.71,ESE,106,0.0,4.5,100,0.00,,,0.00,VWS V13.01,2013-01-12 18:41:00,
2013-01-12 13:46:00,37.6,37.6,29.71,ESE,106,0.0,4.5,100,0.00,,,0.00,VWS V13.01,2013-01-12 18:46:00,
2013-01-12 16:59:00,36.1,36.1,29.68,ESE,106,0.0,7.2,100,0.00,,,0.00,VWS V13.01,2013-01-12 21:59:00,
2013-01-12 17:04:00,36.0,36.0,29.68,ESE,106,0.0,7.2,100,0.00,,,0.00,VWS V13.01,2013-01-12 22:04:00,
2013-01-12 17:09:00,35.6,35.6,29.68,ESE,105,0.0,7.2,100,0.00,,,0.00,VWS V13.01,2013-01-12 22:09:00,
2013-01-12 17:14:00,35.2,35.2,29.68,ESE,105,0.0,7.2,100,0.00,,,0.00,VWS V13.01,2013-01-12 22:14:00,
2013-01-12 17:19:00,35.2,35.2,29.68,ESE,106,0.0,7.2,100,0.00,,,0.00,VWS V13.01,2013-01-12 22:19:00,
2013-01-12 17:24:00,35.8,35.8,29.68,ESE,105,0.0,7.2,100,0.00,,,0.00,VWS V13.01,2013-01-12 22:24:00,
2013-01-12 17:29:00,36.0,36.0,29.68,ESE,106,0.0,7.2,100,0.00,,,0.00,VWS V13.01,2013-01-12 22:29:00,
2013-01-12 17:34:00,36.1,36.1,29.68,ESE,106,0.0,7.2,100,0.00,,,0.00,VWS V13.01,2013-01-12 22:34:00,
2013-01-12 17:39:00,36.1,36.1,29.68,ESE,105,0.0,7.2,100,0.00,,,0.00,VWS V13.01,2013-01-12 22:39:00,
2013-01-12 17:44:00,35.6,35.6,29.68,ESE,106,0.0,7.2,100,0.00,,,0.00,VWS V13.01,2013-01-12 22:44:00,
2013-01-12 17:49:00,35.4,35.4,29.68,ESE,106,0.0,7.2,100,0.00,,,0.00,VWS V13.01,2013-01-12 22:49:00,
2013-01-12 17:55:00,35.4,35.4,29.68,ESE,106,0.0,7.2,100,0.00,,,0.00,VWS V13.01,2013-01-12 22:55:00,
2013-01-12 18:00:00,35.4,35.4,29.68,ESE,105,0.0,7.2,100,0.00,,,0.00,VWS V13.01,2013-01-12 23:00:00,
2013-01-12 18:05:00,35.4,35.4,29.68,ESE,106,0.0,7.2,100,0.00,,,0.00,VWS V13.01,2013-01-12 23:05:00,
2013-01-12 18:10:00,35.4,35.4,29.68,ESE,106,0.0,7.2,100,0.00,,,0.00,VWS V13.01,2013-01-12 23:10:00,
2013-01-12 18:15:00,35.8,35.8,29.68,ESE,106,0.0,7.2,100,0.00,,,0.00,VWS V13.01,2013-01-12 23:15:00,
2013-01-12 18:20:00,36.0,36.0,29.68,ESE,106,0.0,7.2,100,0.00,,,0.00,VWS V13.01,2013-01-12 23:20:00,
2013-01-12 18:25:00,36.1,36.1,29.68,ESE,105,0.0,7.2,100,0.00,,,0.00,VWS V13.01,2013-01-12 23:25:00,
2013-01-12 18:30:00,36.1,36.1,29.68,ESE,106,0.0,7.2,100,0.00,,,0.00,VWS V13.01,2013-01-12 23:30:00,
2013-01-12 18:35:00,36.3,36.3,29.68,ESE,106,0.0,7.2,100,0.00,,,0.00,VWS V13.01,2013-01-12 23:35:00,
2013-01-12 18:40:00,36.3,36.3,29.71,ESE,106,0.0,7.2,100,0.00,,,0.00,VWS V13.01,2013-01-12 23:40:00,
2013-01-12 18:45:00,36.5,36.5,29.71,ESE,106,0.0,7.2,100,0.00,,,0.00,VWS V13.01,2013-01-12 23:45:00,
2013-01-12 18:50:00,36.7,36.7,29.71,ESE,105,0.0,7.2,100,0.00,,,0.00,VWS V13.01,2013-01-12 23:50:00,
2013-01-12 18:55:00,36.7,36.7,29.71,ESE,106,0.0,7.2,100,0.00,,,0.00,VWS V13.01,2013-01-12 23:55:00,
2013-01-12 19:00:00,36.5,36.5,29.71,ESE,105,0.0,7.2,100,0.00,,,0.00,VWS V13.01,2013-01-13 00:00:00,
2013-01-12 19:05:00,36.5,36.5,29.71,ESE,106,0.0,7.2,100,0.00,,,0.00,VWS V13.01,2013-01-13 00:05:00,
2013-01-12 19:10:00,36.5,36.5,29.71,SSE,161,0.0,7.2,100,0.00,,,0.00,VWS V13.01,2013-01-13 00:10:00,
2013-01-12 19:15:00,36.5,36.5,29.71,SSE,162,0.0,7.2,100,0.00,,,0.00,VWS V13.01,2013-01-13 00:15:00,
2013-01-12 19:20:00,36.5,36.5,29.71,SSE,162,0.0,7.2,100,0.00,,,0.00,VWS V13.01,2013-01-13 00:20:00,
2013-01-12 19:25:00,36.5,36.5,29.68,SSW,207,0.0,7.2,100,0.00,,,0.00,VWS V13.01,2013-01-13 00:25:00,
2013-01-12 19:30:00,36.7,36.7,29.68,SW,214,0.0,7.2,100,0.00,,,0.00,VWS V13.01,2013-01-13 00:30:00,
2013-01-12 19:36:00,36.9,36.9,29.68,SSW,211,0.0,7.2,100,0.00,,,0.00,VWS V13.01,2013-01-13 00:36:00,
2013-01-12 19:41:00,36.9,36.9,29.68,SSW,211,0.0,7.2,100,0.00,,,0.00,VWS V13.01,2013-01-13 00:41:00,
2013-01-12 19:46:00,36.9,36.9,29.68,SSW,210,0.0,7.2,100,0.00,,,0.00,VWS V13.01,2013-01-13 00:46:00,
2013-01-12 19:51:00,36.9,36.9,29.68,SSW,211,0.0,7.2,100,0.00,,,0.00,VWS V13.01,2013-01-13 00:51:00,
2013-01-12 19:56:00,36.9,36.9,29.68,SSW,211,0.0,7.2,100,0.00,,,0.00,VWS V13.01,2013-01-13 00:56:00,
2013-01-12 20:01:00,36.9,36.9,29.68,SSW,210,0.0,7.2,100,0.00,,,0.00,VWS V13.01,2013-01-13 01:01:00,
2013-01-12 20:06:00,36.9,36.9,29.68,SSW,210,0.0,7.2,100,0.00,,,0.00,VWS V13.01,2013-01-13 01:06:00,
2013-01-12 20:11:00,36.9,36.9,29.68,SSW,210,0.0,7.2,100,0.00,,,0.00,VWS V13.01,2013-01-13 01:11:00,
2013-01-12 20:16:00,37.0,37.0,29.68,SSW,211,0.0,7.2,100,0.00,,,0.00,VWS V13.01,2013-01-13 01:16:00,
2013-01-12 20:21:00,37.0,37.0,29.68,SSW,211,0.0,7.2,100,0.00,,,0.00,VWS V13.01,2013-01-13 01:21:00,
2013-01-12 20:26:00,37.2,37.2,29.71,SSW,211,0.0,7.2,100,0.00,,,0.00,VWS V13.01,2013-01-13 01:26:00,
2013-01-12 20:31:00,37.4,37.4,29.71,SSW,210,0.0,7.2,100,0.00,,,0.00,VWS V13.01,2013-01-13 01:31:00,
2013-01-12 20:36:00,37.4,37.4,29.71,SSW,210,0.0,7.2,100,0.00,,,0.00,VWS V13.01,2013-01-13 01:36:00,
2013-01-12 20:41:00,37.4,37.4,29.71,SSW,210,0.0,7.2,100,0.00,,,0.00,VWS V13.01,2013-01-13 01:41:00,
2013-01-12 20:46:00,37.4,37.4,29.71,SSW,211,0.0,7.2,100,0.00,,,0.00,VWS V13.01,2013-01-13 01:46:00,
2013-01-12 20:51:00,37.4,37.4,29.71,SSW,210,0.0,7.2,100,0.00,,,0.00,VWS V13.01,2013-01-13 01:51:00,
2013-01-12 20:56:00,37.4,37.4,29.71,SSW,211,0.0,7.2,100,0.00,,,0.00,VWS V13.01,2013-01-13 01:56:00,
2013-01-12 21:01:00,37.4,37.4,29.71,SSW,210,0.0,7.2,100,0.00,,,0.00,VWS V13.01,2013-01-13 02:01:00,
2013-01-12 21:07:00,37.4,37.4,29.71,SSW,210,0.0,7.2,100,0.00,,,0.00,VWS V13.01,2013-01-13 02:07:00,
2013-01-12 21:12:00,37.4,37.4,29.71,SSW,211,0.0,7.2,100,0.00,,,0.00,VWS V13.01,2013-01-13 02:12:00,
2013-01-12 21:17:00,37.4,37.4,29.71,SSW,211,0.0,7.2,100,0.00,,,0.00,VWS V13.01,2013-01-13 02:17:00,
2013-01-12 21:22:00,37.4,37.4,29.71,SSW,210,0.0,7.2,100,0.00,,,0.00,VWS V13.01,2013-01-13 02:22:00,
2013-01-12 21:27:00,37.4,37.4,29.71,SSW,210,0.0,7.2,100,0.00,,,0.00,VWS V13.01,2013-01-13 02:27:00,
2013-01-12 21:32:00,37.4,37.4,29.71,SSW,211,0.0,7.2,100,0.00,,,0.00,VWS V13.01,2013-01-13 02:32:00,
2013-01-12 21:37:00,37.6,37.6,29.71,SSW,210,0.0,7.2,100,0.00,,,0.00,VWS V13.01,2013-01-13 02:37:00,
2013-01-12 21:42:00,37.6,37.6,29.71,SSW,211,0.0,7.2,100,0.00,,,0.00,VWS V13.01,2013-01-13 02:42:00,
2013-01-12 21:47:00,37.6,37.6,29.71,SSW,211,0.0,7.2,100,0.00,,,0.00,VWS V13.01,2013-01-13 02:47:00,
2013-01-12 21:52:00,37.4,37.4,29.71,SSW,210,0.0,7.2,100,0.00,,,0.00,VWS V13.01,2013-01-13 02:52:00,
2013-01-12 21:57:00,37.6,37.6,29.71,SSW,211,0.0,7.2,100,0.00,,,0.00,VWS V13.01,2013-01-13 02:57:00,
2013-01-12 22:02:00,37.6,37.6,29.71,SSW,211,0.0,7.2,100,0.00,,,0.00,VWS V13.01,2013-01-13 03:02:00,
2013-01-12 22:07:00,37.8,37.8,29.71,SSW,211,0.0,7.2,100,0.00,,,0.00,VWS V13.01,2013-01-13 03:07:00,
2013-01-12 22:12:00,37.8,37.8,29.71,SSW,210,0.0,7.2,100,0.00,,,0.00,VWS V13.01,2013-01-13 03:12:00,
2013-01-12 22:17:00,37.8,37.8,29.71,SSW,211,0.0,7.2,100,0.00,,,0.00,VWS V13.01,2013-01-13 03:17:00,
2013-01-12 22:22:00,37.6,37.6,29.71,SSW,211,0.0,7.2,100,0.00,,,0.00,VWS V13.01,2013-01-13 03:22:00,
2013-01-12 22:27:00,37.6,37.6,29.71,SSW,211,0.0,7.2,100,0.00,,,0.00,VWS V13.01,2013-01-13 03:27:00,
2013-01-12 22:32:00,37.6,37.6,29.71,SSW,210,0.0,7.2,100,0.00,,,0.00,VWS V13.01,2013-01-13 03:32:00,
2013-01-12 22:37:00,37.6,37.6,29.71,SSW,211,0.0,7.2,100,0.00,,,0.00,VWS V13.01,2013-01-13 03:37:00,
2013-01-12 22:42:00,37.6,37.6,29.71,SSW,210,0.0,7.2,100,0.00,,,0.00,VWS V13.01,2013-01-13 03:42:00,
2013-01-12 23:21:00,37.0,37.0,29.71,SSW,210,0.0,0.0,100,0.00,,,0.00,VWS V13.01,2013-01-13 04:21:00,
2013-01-12 23:26:00,37.2,37.2,29.71,SSW,211,0.0,0.0,100,0.00,,,0.00,VWS V13.01,2013-01-13 04:26:00,
2013-01-12 23:31:00,37.0,37.0,29.71,SSW,210,0.0,0.0,100,0.00,,,0.00,VWS V13.01,2013-01-13 04:31:00,
2013-01-12 23:36:00,37.0,37.0,29.71,SSW,210,0.0,0.0,100,0.00,,,0.00,VWS V13.01,2013-01-13 04:36:00,
2013-01-12 23:41:00,37.2,37.2,29.71,SSW,211,0.0,0.0,100,0.00,,,0.00,VWS V13.01,2013-01-13 04:41:00,
2013-01-12 23:46:00,37.0,37.0,29.71,SSW,210,0.0,0.0,100,0.00,,,0.00,VWS V13.01,2013-01-13 04:46:00,
2013-01-12 23:51:00,37.0,37.0,29.71,SSW,211,0.0,0.0,100,0.00,,,0.00,VWS V13.01,2013-01-13 04:51:00,
2013-01-12 23:56:00,37.2,37.2,29.71,SSW,210,0.0,0.0,100,0.00,,,0.00,VWS V13.01,2013-01-13 04:56:00,